Brookhaven, MS

1:03 AM CST on February 12, 2016 (GMT -0600)
Brookhaven

Weather History for K1R7 - June, 2012

Change the Weather History Date:

Friday, June 1, 2012

  Actual Average (KMCB) Record (KMCB)
Temperature  
Mean Temperature 70 °F -  
Max Temperature 80 °F 86 °F 99 °F (2011)
Min Temperature 59 °F 62 °F 46 °F (1984)
Cooling Degree Days 4    
Growing Degree Days 20 (Base 50)    
Moisture  
Dew Point 61 °F    
Average Humidity 75    
Maximum Humidity 100    
Minimum Humidity 42    
Precipitation  
Precipitation 0.00 in - - ()
Sea Level Pressure  
Sea Level Pressure 29.92 in    
Wind  
Wind Speed 6 mph (NW)    
Max Wind Speed 13 mph    
Max Gust Speed 20 mph    
Visibility 8 miles    
Events      
Averages and records for this station are not official NWS values.
T = Trace of Precipitation, MM = Missing Value Source: NWS Daily Summary

Daily Weather History Graph

Daily Weather History Graph

Search for Another Location

Airport or City:

Trip Planner

Search our weather history database for the weather conditions in past years. The results will help you decide how hot, cold, wet, or windy it might be!

Date:

Astronomy

Jun. 01, 2012 Rise Set
Actual Time 5:57 AM CDT 8:02 PM CDT
Civil Twilight 5:29 AM CDT 8:29 PM CDT
Nautical Twilight 4:55 AM CDT 9:03 PM CDT
Astronomical Twilight 4:19 AM CDT 9:39 PM CDT
Moon 5:11 PM CDT (6/1) 3:23 AM CDT (6/1)
Length of Visible Light 15h 00m
Length of Day
14h 05m
Waxing Gibbous, 89% of the Moon is Illuminated
Jun 1
Waxing Gibbous
Jun 4
Full
Jun 11
Last Quarter
Jun 19
New
Jun 26
First Quarter

Hourly Weather History & Observations

Time (CDT) Temp. Heat Index Dew Point Humidity Pressure Visibility Wind Dir Wind Speed Gust Speed Precip Events Conditions
12:15 AM 66.2 °F - 66.2 °F 100% 29.87 in 2.5 mi South 6.9 mph - N/A   Overcast
12:35 AM 66.2 °F - 66.2 °F 100% 29.87 in 3.0 mi SSW 4.6 mph - N/A   Overcast
12:55 AM 66.2 °F - 66.2 °F 100% 29.87 in 4.0 mi South 3.5 mph - N/A   Overcast
1:15 AM 66.2 °F - 66.2 °F 100% 29.86 in 3.0 mi South 3.5 mph - N/A   Mostly Cloudy
1:35 AM 66.2 °F - 66.2 °F 100% 29.85 in 3.0 mi South 3.5 mph - N/A   Mostly Cloudy
1:55 AM 66.2 °F - 66.2 °F 100% 29.85 in 3.0 mi SSW 3.5 mph - N/A   Scattered Clouds
2:15 AM 66.2 °F - 66.2 °F 100% 29.85 in 4.0 mi SSW 3.5 mph - N/A   Partly Cloudy
2:35 AM 66.2 °F - 66.2 °F 100% 29.85 in 4.0 mi Calm Calm - N/A   Clear
2:55 AM 66.2 °F - 66.2 °F 100% 29.84 in 4.0 mi Calm Calm - N/A   Clear
3:15 AM 66.2 °F - 66.2 °F 100% 29.83 in 3.0 mi Calm Calm - N/A   Clear
3:35 AM 66.2 °F - 66.2 °F 100% 29.83 in 3.0 mi South 4.6 mph - N/A   Partly Cloudy
3:55 AM 66.2 °F - 66.2 °F 100% 29.84 in 2.5 mi South 3.5 mph - N/A   Partly Cloudy
4:15 AM 66.2 °F - 66.2 °F 100% 29.83 in 3.0 mi South 3.5 mph - N/A   Clear
4:35 AM 66.2 °F - 66.2 °F 100% 29.83 in 3.0 mi South 4.6 mph - N/A   Partly Cloudy
4:55 AM 66.2 °F - 66.2 °F 100% 29.84 in 3.0 mi SSW 4.6 mph - N/A   Partly Cloudy
5:15 AM 66.2 °F - 66.2 °F 100% 29.84 in 3.0 mi SW 3.5 mph - N/A   Clear
5:35 AM 66.2 °F - 66.2 °F 100% 29.85 in 3.0 mi SW 3.5 mph - N/A   Clear
5:55 AM 66.2 °F - 66.2 °F 100% 29.86 in 4.0 mi WSW 6.9 mph - N/A   Partly Cloudy
6:15 AM 66.2 °F - 66.2 °F 100% 29.88 in 3.0 mi West 5.8 mph - N/A   Mostly Cloudy
6:35 AM 66.2 °F - 66.2 °F 100% 29.88 in 4.0 mi West 5.8 mph - N/A   Overcast
6:55 AM 68.0 °F - 66.2 °F 94% 29.89 in 5.0 mi West 5.8 mph - N/A   Overcast
7:15 AM 68.0 °F - 66.2 °F 94% 29.90 in 3.0 mi NW 6.9 mph - N/A   Overcast
7:35 AM 68.0 °F - 66.2 °F 94% 29.90 in 3.0 mi NNW 8.1 mph - N/A   Overcast
7:55 AM 68.0 °F - 66.2 °F 94% 29.92 in 3.0 mi NNW 8.1 mph - N/A   Overcast
8:15 AM 68.0 °F - 66.2 °F 94% 29.93 in 5.0 mi North 8.1 mph - N/A   Overcast
8:35 AM 68.0 °F - 62.6 °F 83% 29.94 in 9.0 mi North 11.5 mph 17.3 mph N/A   Overcast
8:55 AM 66.2 °F - 60.8 °F 83% 29.95 in 10.0 mi North 8.1 mph - N/A   Overcast
9:15 AM 68.0 °F - 60.8 °F 78% 29.95 in 10.0 mi North 5.8 mph - N/A   Overcast
9:35 AM 71.6 °F - 60.8 °F 69% 29.95 in 10.0 mi North 11.5 mph - N/A   Mostly Cloudy
9:55 AM 71.6 °F - 60.8 °F 69% 29.96 in 10.0 mi NNW 12.7 mph - N/A   Scattered Clouds
10:15 AM 71.6 °F - 60.8 °F 69% 29.96 in 10.0 mi North 8.1 mph - N/A   Scattered Clouds
10:35 AM 71.6 °F - 62.6 °F 73% 29.96 in 10.0 mi NNW 11.5 mph - N/A   Scattered Clouds
10:55 AM 71.6 °F - 64.4 °F 78% 29.96 in 10.0 mi NNW 8.1 mph - N/A   Overcast
11:15 AM 73.4 °F - 62.6 °F 69% 29.96 in 10.0 mi North 9.2 mph - N/A   Mostly Cloudy
11:35 AM 73.4 °F - 62.6 °F 69% 29.96 in 10.0 mi NW 9.2 mph - N/A   Scattered Clouds
11:55 AM 73.4 °F - 60.8 °F 65% 29.96 in 10.0 mi NW 8.1 mph - N/A   Light Drizzle
12:15 PM 75.2 °F - 60.8 °F 61% 29.96 in 9.0 mi NW 6.9 mph - N/A   Scattered Clouds
12:35 PM 75.2 °F - 60.8 °F 61% 29.95 in 10.0 mi NW 8.1 mph 16.1 mph N/A   Partly Cloudy
12:55 PM 77.0 °F - 59.0 °F 54% 29.95 in 10.0 mi NNW 10.4 mph - N/A   Clear
1:15 PM 77.0 °F - 60.8 °F 57% 29.95 in 10.0 mi NW 10.4 mph 16.1 mph N/A   Clear
1:35 PM 78.8 °F - 60.8 °F 54% 29.94 in 10.0 mi NW 10.4 mph - N/A   Clear
1:55 PM 78.8 °F - 59.0 °F 51% 29.93 in 10.0 mi North 9.2 mph - N/A   Clear
2:15 PM 78.8 °F - 59.0 °F 51% 29.93 in 10.0 mi North 6.9 mph - N/A   Clear
2:35 PM 78.8 °F - 57.2 °F 47% 29.92 in 10.0 mi NNW 6.9 mph 17.3 mph N/A   Clear
2:55 PM 78.8 °F - 57.2 °F 47% 29.92 in 10.0 mi NNW 6.9 mph 16.1 mph N/A   Clear
3:15 PM 78.8 °F - 57.2 °F 47% 29.92 in 10.0 mi NNE 8.1 mph - N/A   Clear
3:35 PM 80.6 °F 80.8 °F 57.2 °F 45% 29.91 in 10.0 mi North 9.2 mph 19.6 mph N/A   Clear
3:55 PM 78.8 °F - 57.2 °F 47% 29.92 in 10.0 mi North 11.5 mph - N/A   Clear
4:15 PM 80.6 °F 80.5 °F 55.4 °F 42% 29.91 in 10.0 mi WNW 8.1 mph - N/A   Clear
4:35 PM 80.6 °F 80.8 °F 57.2 °F 45% 29.91 in 10.0 mi NNW 9.2 mph - N/A   Clear
4:55 PM 78.8 °F - 55.4 °F 44% 29.91 in 10.0 mi North 10.4 mph - N/A   Clear
5:15 PM 78.8 °F - 55.4 °F 44% 29.91 in 10.0 mi NNW 5.8 mph - N/A   Clear
5:35 PM 78.8 °F - 55.4 °F 44% 29.93 in 10.0 mi NNW 9.2 mph - N/A   Clear
5:55 PM 78.8 °F - 55.4 °F 44% 29.92 in 10.0 mi North 6.9 mph - N/A   Light Drizzle
6:15 PM 77.0 °F - 57.2 °F 50% 29.93 in 10.0 mi North 8.1 mph - N/A   Clear
6:35 PM 75.2 °F - 55.4 °F 50% 29.93 in 10.0 mi NW 8.1 mph - N/A   Clear
6:55 PM 75.2 °F - 55.4 °F 50% 29.94 in 10.0 mi NNW 9.2 mph - N/A   Clear
7:15 PM 73.4 °F - 57.2 °F 57% 29.94 in 10.0 mi NNW 5.8 mph - N/A   Clear
7:35 PM 73.4 °F - 57.2 °F 57% 29.95 in 10.0 mi NNW 4.6 mph - N/A   Clear
7:55 PM 69.8 °F - 57.2 °F 64% 29.97 in 10.0 mi Calm Calm - N/A   Clear
8:15 PM 69.8 °F - 57.2 °F 64% 29.97 in 10.0 mi NNW 4.6 mph - N/A   Clear
8:35 PM 68.0 °F - 57.2 °F 68% 29.98 in 10.0 mi North 3.5 mph - N/A   Clear
8:55 PM 66.2 °F - 57.2 °F 73% 29.98 in 10.0 mi North 5.8 mph - N/A   Clear
9:15 PM 66.2 °F - 57.2 °F 73% 29.98 in 10.0 mi Calm Calm - N/A   Clear
9:35 PM 64.4 °F - 57.2 °F 77% 29.99 in 10.0 mi Calm Calm - N/A   Clear
9:55 PM 64.4 °F - 55.4 °F 73% 30.00 in 10.0 mi Calm Calm - N/A   Clear
10:15 PM 62.6 °F - 55.4 °F 77% 29.99 in 10.0 mi Calm Calm - N/A   Clear
10:35 PM 60.8 °F - 57.2 °F 88% 29.99 in 10.0 mi Calm Calm - N/A   Clear
10:55 PM 60.8 °F - 57.2 °F 88% 29.98 in 10.0 mi Calm Calm - N/A   Clear
11:35 PM 59.0 °F - 55.4 °F 88% 29.98 in 10.0 mi Calm Calm - N/A   Clear
11:55 PM 59.0 °F - 55.4 °F 88% 29.98 in 10.0 mi Calm Calm - N/A   Clear